Time,TemperatureF,DewpointF,PressureIn,WindDirection,WindDirectionDegrees,WindSpeedMPH,WindSpeedGustMPH,Humidity,HourlyPrecipIn,Conditions,Clouds,dailyrainin,SolarRadiationWatts/m^2,SoftwareType,DateUTC
2013-05-08 00:02:00,56.0,53.0,30.20,NNE,27,1.0,4.0,91,0.00,,,0.00,0.000000,,2013-05-08 04:02:00,
2013-05-08 00:13:00,56.0,53.0,30.20,NNE,27,1.0,4.0,91,0.00,,,0.00,0.000000,,2013-05-08 04:13:00,
2013-05-08 00:43:00,55.0,54.0,30.20,SSW,202,3.0,4.0,96,0.00,,,0.00,0.000000,,2013-05-08 04:43:00,
2013-05-08 00:53:00,55.0,54.0,30.20,SSW,202,3.0,4.0,96,0.00,,,0.00,0.000000,,2013-05-08 04:53:00,
2013-05-08 01:02:00,55.0,54.0,30.20,SSW,202,3.0,4.0,96,0.00,,,0.00,0.000000,,2013-05-08 05:02:00,
2013-05-08 01:12:00,55.0,54.0,30.20,SSW,202,3.0,4.0,96,0.00,,,0.00,0.000000,,2013-05-08 05:12:00,
2013-05-08 01:32:00,53.0,52.0,30.19,SSW,212,2.0,8.0,97,0.00,,,0.00,0.000000,,2013-05-08 05:32:00,
2013-05-08 01:42:00,53.0,52.0,30.19,SSW,212,2.0,8.0,97,0.00,,,0.00,0.000000,,2013-05-08 05:42:00,
2013-05-08 01:52:00,53.0,52.0,30.19,SSW,212,2.0,8.0,97,0.00,,,0.00,0.000000,,2013-05-08 05:52:00,
2013-05-08 02:02:00,53.0,52.0,30.19,SSW,212,2.0,8.0,97,0.00,,,0.00,0.000000,,2013-05-08 06:02:00,
2013-05-08 02:12:00,53.0,52.0,30.19,SSW,212,2.0,8.0,97,0.00,,,0.00,0.000000,,2013-05-08 06:12:00,
2013-05-08 02:42:00,53.0,53.0,30.18,WSW,255,2.0,4.0,99,0.00,,,0.00,0.000000,,2013-05-08 06:42:00,
2013-05-08 02:52:00,53.0,53.0,30.18,WSW,255,2.0,4.0,99,0.00,,,0.00,0.000000,,2013-05-08 06:52:00,
2013-05-08 03:02:00,53.0,53.0,30.18,WSW,255,2.0,4.0,99,0.00,,,0.00,0.000000,,2013-05-08 07:02:00,
2013-05-08 03:11:00,53.0,53.0,30.18,WSW,255,2.0,4.0,99,0.00,,,0.00,0.000000,,2013-05-08 07:11:00,
2013-05-08 03:42:00,54.0,54.0,30.17,SE,126,1.0,3.0,99,0.00,,,0.00,0.000000,,2013-05-08 07:42:00,
2013-05-08 03:52:00,54.0,54.0,30.17,SE,126,1.0,3.0,99,0.00,,,0.00,0.000000,,2013-05-08 07:52:00,
2013-05-08 04:02:00,54.0,54.0,30.17,SE,126,1.0,3.0,99,0.00,,,0.00,0.000000,,2013-05-08 08:02:00,
2013-05-08 04:12:00,54.0,54.0,30.17,SE,126,1.0,3.0,99,0.00,,,0.00,0.000000,,2013-05-08 08:12:00,
2013-05-08 04:32:00,54.0,54.0,30.17,SSE,164,4.0,6.0,99,0.00,,,0.00,0.000000,,2013-05-08 08:32:00,
2013-05-08 04:43:00,54.0,54.0,30.17,SSE,164,4.0,6.0,99,0.00,,,0.00,0.000000,,2013-05-08 08:43:00,
2013-05-08 04:52:00,54.0,54.0,30.17,SSE,164,4.0,6.0,99,0.00,,,0.00,0.000000,,2013-05-08 08:52:00,
2013-05-08 05:02:00,54.0,54.0,30.17,SSE,164,4.0,6.0,99,0.00,,,0.00,0.000000,,2013-05-08 09:02:00,
2013-05-08 05:11:00,54.0,54.0,30.17,SSE,164,4.0,6.0,99,0.00,,,0.00,0.000000,,2013-05-08 09:11:00,
2013-05-08 05:42:00,54.0,54.0,30.18,SSE,159,3.0,6.0,99,0.00,,,0.00,0.000000,,2013-05-08 09:42:00,
2013-05-08 05:53:00,54.0,54.0,30.18,SSE,159,3.0,6.0,99,0.00,,,0.00,0.000000,,2013-05-08 09:53:00,
2013-05-08 06:02:00,54.0,54.0,30.18,SSE,159,3.0,6.0,99,0.00,,,0.00,0.000000,,2013-05-08 10:02:00,
2013-05-08 06:12:00,54.0,54.0,30.18,SSE,159,3.0,6.0,99,0.00,,,0.00,0.000000,,2013-05-08 10:12:00,
2013-05-08 06:33:00,52.0,52.0,30.19,SSW,201,2.0,3.0,99,0.00,,,0.00,0.000000,,2013-05-08 10:33:00,
2013-05-08 06:42:00,52.0,52.0,30.19,SSW,201,2.0,3.0,99,0.00,,,0.00,0.000000,,2013-05-08 10:42:00,
2013-05-08 06:53:00,52.0,52.0,30.19,SSW,201,2.0,3.0,99,0.00,,,0.00,0.000000,,2013-05-08 10:53:00,
2013-05-08 07:02:00,52.0,52.0,30.19,SSW,201,2.0,3.0,99,0.00,,,0.00,0.000000,,2013-05-08 11:02:00,
2013-05-08 07:11:00,52.0,52.0,30.19,SSW,201,2.0,3.0,99,0.00,,,0.00,0.000000,,2013-05-08 11:11:00,
2013-05-08 07:42:00,53.0,53.0,30.21,ESE,104,2.0,8.0,99,0.00,,,0.00,11.000000,,2013-05-08 11:42:00,
2013-05-08 07:52:00,53.0,53.0,30.21,ESE,104,2.0,8.0,99,0.00,,,0.00,11.000000,,2013-05-08 11:52:00,
2013-05-08 08:02:00,53.0,53.0,30.21,ESE,104,2.0,8.0,99,0.00,,,0.00,11.000000,,2013-05-08 12:02:00,
2013-05-08 08:11:00,53.0,53.0,30.21,ESE,104,2.0,8.0,99,0.00,,,0.00,11.000000,,2013-05-08 12:11:00,
2013-05-08 08:42:00,56.0,54.0,30.22,WSW,239,4.0,12.0,92,0.00,,,0.00,86.000000,,2013-05-08 12:42:00,
2013-05-08 08:52:00,56.0,54.0,30.22,WSW,239,4.0,12.0,92,0.00,,,0.00,86.000000,,2013-05-08 12:52:00,
2013-05-08 09:01:00,56.0,54.0,30.22,WSW,239,4.0,12.0,92,0.00,,,0.00,86.000000,,2013-05-08 13:01:00,
2013-05-08 09:12:00,56.0,54.0,30.22,WSW,239,4.0,12.0,92,0.00,,,0.00,86.000000,,2013-05-08 13:12:00,
2013-05-08 09:42:00,61.0,54.0,30.24,SSW,211,3.0,8.0,79,0.00,,,0.00,233.000000,,2013-05-08 13:42:00,
2013-05-08 09:52:00,61.0,54.0,30.24,SSW,211,3.0,8.0,79,0.00,,,0.00,233.000000,,2013-05-08 13:52:00,
2013-05-08 10:02:00,61.0,54.0,30.24,SSW,211,3.0,8.0,79,0.00,,,0.00,233.000000,,2013-05-08 14:02:00,
2013-05-08 10:11:00,61.0,54.0,30.24,SSW,211,3.0,8.0,79,0.00,,,0.00,233.000000,,2013-05-08 14:11:00,
2013-05-08 10:42:00,62.0,54.0,30.24,NW,304,1.0,7.0,76,0.00,,,0.00,276.000000,,2013-05-08 14:42:00,
2013-05-08 10:52:00,62.0,54.0,30.24,NW,304,1.0,7.0,76,0.00,,,0.00,276.000000,,2013-05-08 14:52:00,
2013-05-08 11:02:00,62.0,54.0,30.24,NW,304,1.0,7.0,76,0.00,,,0.00,276.000000,,2013-05-08 15:02:00,
2013-05-08 11:11:00,62.0,54.0,30.24,NW,304,1.0,7.0,76,0.00,,,0.00,276.000000,,2013-05-08 15:11:00,
2013-05-08 11:42:00,63.0,53.0,30.25,South,187,3.0,6.0,70,0.00,,,0.00,395.000000,,2013-05-08 15:42:00,
2013-05-08 11:53:00,63.0,53.0,30.25,South,187,3.0,6.0,70,0.00,,,0.00,395.000000,,2013-05-08 15:53:00,
2013-05-08 12:03:00,63.0,53.0,30.25,South,187,3.0,6.0,70,0.00,,,0.00,395.000000,,2013-05-08 16:03:00,
2013-05-08 12:12:00,63.0,53.0,30.25,South,187,3.0,6.0,70,0.00,,,0.00,395.000000,,2013-05-08 16:12:00,
2013-05-08 12:42:00,66.0,54.0,30.24,South,182,5.0,11.0,66,0.00,,,0.00,340.000000,,2013-05-08 16:42:00,
2013-05-08 12:52:00,66.0,54.0,30.24,South,182,5.0,11.0,66,0.00,,,0.00,340.000000,,2013-05-08 16:52:00,
2013-05-08 13:02:00,66.0,54.0,30.24,South,182,5.0,11.0,66,0.00,,,0.00,340.000000,,2013-05-08 17:02:00,
2013-05-08 13:12:00,66.0,54.0,30.24,South,182,5.0,11.0,66,0.00,,,0.00,340.000000,,2013-05-08 17:12:00,
2013-05-08 13:52:00,68.0,54.0,30.22,South,189,8.0,17.0,60,0.00,,,-99.99,625.000000,,2013-05-08 17:52:00,
2013-05-08 14:02:00,68.0,54.0,30.22,South,189,8.0,17.0,60,0.00,,,-99.99,625.000000,,2013-05-08 18:02:00,
2013-05-08 14:12:00,68.0,54.0,30.22,South,189,8.0,17.0,60,0.00,,,-99.99,625.000000,,2013-05-08 18:12:00,
2013-05-08 14:42:00,67.0,54.0,30.21,SSW,198,2.0,12.0,64,0.00,,,0.00,219.000000,,2013-05-08 18:42:00,
2013-05-08 14:52:00,67.0,54.0,30.21,SSW,198,2.0,12.0,64,0.00,,,0.00,219.000000,,2013-05-08 18:52:00,
2013-05-08 15:01:00,67.0,54.0,30.21,SSW,198,2.0,12.0,64,0.00,,,0.00,219.000000,,2013-05-08 19:01:00,
2013-05-08 15:11:00,67.0,54.0,30.21,SSW,198,2.0,12.0,64,0.00,,,0.00,219.000000,,2013-05-08 19:11:00,
2013-05-08 15:42:00,69.0,56.0,30.20,SSW,200,3.0,7.0,64,0.00,,,0.00,199.000000,,2013-05-08 19:42:00,
2013-05-08 15:52:00,69.0,56.0,30.20,SSW,200,3.0,7.0,64,0.00,,,0.00,199.000000,,2013-05-08 19:52:00,
2013-05-08 16:02:00,69.0,56.0,30.20,SSW,200,3.0,7.0,64,0.00,,,0.00,199.000000,,2013-05-08 20:02:00,
2013-05-08 16:11:00,69.0,56.0,30.20,SSW,200,3.0,7.0,64,0.00,,,0.00,199.000000,,2013-05-08 20:11:00,
2013-05-08 16:42:00,72.0,55.0,30.19,SW,229,9.0,16.0,55,0.00,,,0.00,361.000000,,2013-05-08 20:42:00,
2013-05-08 16:52:00,72.0,55.0,30.19,SW,229,9.0,16.0,55,0.00,,,0.00,361.000000,,2013-05-08 20:52:00,
2013-05-08 17:02:00,72.0,55.0,30.19,SW,229,9.0,16.0,55,0.00,,,0.00,361.000000,,2013-05-08 21:02:00,
2013-05-08 17:12:00,72.0,55.0,30.19,SW,229,9.0,16.0,55,0.00,,,0.00,361.000000,,2013-05-08 21:12:00,
2013-05-08 17:43:00,74.0,56.0,30.19,WSW,251,5.0,17.0,53,0.00,,,0.00,313.000000,,2013-05-08 21:43:00,
2013-05-08 17:53:00,74.0,56.0,30.19,WSW,251,5.0,17.0,53,0.00,,,0.00,313.000000,,2013-05-08 21:53:00,
2013-05-08 18:03:00,74.0,56.0,30.19,WSW,251,5.0,17.0,53,0.00,,,0.00,313.000000,,2013-05-08 22:03:00,
2013-05-08 18:12:00,74.0,56.0,30.19,WSW,251,5.0,17.0,53,0.00,,,0.00,313.000000,,2013-05-08 22:12:00,
2013-05-08 18:42:00,71.0,54.0,30.19,SW,231,4.0,16.0,55,0.00,,,0.00,304.000000,,2013-05-08 22:42:00,
2013-05-08 18:53:00,71.0,54.0,30.19,SW,231,4.0,16.0,55,0.00,,,0.00,304.000000,,2013-05-08 22:53:00,
2013-05-08 19:02:00,71.0,54.0,30.19,SW,231,4.0,16.0,55,0.00,,,0.00,304.000000,,2013-05-08 23:02:00,
2013-05-08 19:12:00,71.0,54.0,30.19,SW,231,4.0,16.0,55,0.00,,,0.00,304.000000,,2013-05-08 23:12:00,
2013-05-08 19:33:00,69.0,55.0,30.19,ESE,106,2.0,9.0,62,0.00,,,0.00,144.000000,,2013-05-08 23:33:00,
2013-05-08 19:42:00,69.0,55.0,30.19,ESE,106,2.0,9.0,62,0.00,,,0.00,144.000000,,2013-05-08 23:42:00,
2013-05-08 19:53:00,69.0,55.0,30.19,ESE,106,2.0,9.0,62,0.00,,,0.00,144.000000,,2013-05-08 23:53:00,
2013-05-08 20:02:00,69.0,55.0,30.19,ESE,106,2.0,9.0,62,0.00,,,0.00,144.000000,,2013-05-09 00:02:00,
2013-05-08 20:12:00,69.0,55.0,30.19,ESE,106,2.0,9.0,62,0.00,,,0.00,144.000000,,2013-05-09 00:12:00,
2013-05-08 20:42:00,65.0,56.0,30.23,NNW,339,5.0,14.0,73,0.00,,,0.00,36.000000,,2013-05-09 00:42:00,
2013-05-08 20:52:00,65.0,56.0,30.23,NNW,339,5.0,14.0,73,0.00,,,0.00,36.000000,,2013-05-09 00:52:00,
2013-05-08 21:01:00,65.0,56.0,30.23,NNW,339,5.0,14.0,73,0.00,,,0.00,36.000000,,2013-05-09 01:01:00,
2013-05-08 21:12:00,65.0,56.0,30.23,NNW,339,5.0,14.0,73,0.00,,,0.00,36.000000,,2013-05-09 01:12:00,
2013-05-08 21:32:00,62.0,56.0,30.25,North,358,4.0,12.0,81,0.00,,,0.00,0.000000,,2013-05-09 01:32:00,
2013-05-08 21:42:00,62.0,56.0,30.25,North,358,4.0,12.0,81,0.00,,,0.00,0.000000,,2013-05-09 01:42:00,
2013-05-08 21:53:00,62.0,56.0,30.25,North,358,4.0,12.0,81,0.00,,,0.00,0.000000,,2013-05-09 01:53:00,
2013-05-08 22:02:00,62.0,56.0,30.25,North,358,4.0,12.0,81,0.00,,,0.00,0.000000,,2013-05-09 02:02:00,
2013-05-08 22:12:00,62.0,56.0,30.25,North,358,4.0,12.0,81,0.00,,,0.00,0.000000,,2013-05-09 02:12:00,
2013-05-08 23:02:00,60.0,57.0,30.25,NNE,27,2.0,8.0,89,0.00,,,0.00,0.000000,,2013-05-09 03:02:00,
2013-05-08 23:11:00,60.0,57.0,30.25,NNE,27,2.0,8.0,89,0.00,,,0.00,0.000000,,2013-05-09 03:11:00,
2013-05-08 23:43:00,60.0,59.0,30.26,NW,316,1.0,7.0,96,0.00,,,0.00,0.000000,,2013-05-09 03:43:00,
2013-05-08 23:53:00,60.0,59.0,30.26,NW,316,1.0,7.0,96,0.00,,,0.00,0.000000,,2013-05-09 03:53:00,